Location: Balaclava NSW 2575, Australia
(34.4510°S, 150.4953°E)
Time: 00:27:26
(UTC+10:00)

A-11 Canister half - Pass Details

Date: 20 June 2021
Orbit: 1513 x 1687 km, 47.2° (Epoch: 28 July)

Event Time Altitude Azimuth Distance (km) Brightness Sun altitude
Rises 20:09:54 0° 244° (WSW) 4,761 12.3 -39.2°
Reaches altitude 10° 20:13:13 10° 236° (WSW) 3,802 11.5 -39.9°
Enters shadow 20:20:08 38° 196° (SSW) 2,298 9.8 -41.3°
